ARIANE 5 R/B, 44477

Orbit data source: Space-Track

ARIANE 5 R/B, 44477 is space debris in HEO originally from a launch on Tue, 06 Aug 2019 UTC launched from the French Guiana (FRGUI). Debris objects in space refer to the collection of defunct objects orbiting the Earth. Examples of debris include non-operational satellites, rocket bodies, and fragments generated from explosions, collisions, or faulty payload assembly.

Loading next visibility...
Identifier
44477, 2019-049C
Orbit
HEO
Last TLE update
7 hours ago
Origin
Manufacturer
ArianeGroup
Mission
Spacecraft
Bus & Motor
ESC-A, Unknown motor
Mass
~5,000 kg wet, ~5,000 kg dry
Launch date (UTC)
2019-08-06 (6 years ago)
Launch vehicle
Unknown
Launch site
French Guiana (FRGUI)
Object type
Payload
Rocket body
Debris
Shape & HBR
Cyl + 1 Nozzle, 7 m
Radar Cross Section
41.627 m², Large (>1 m²)

Expand to show TLE details & history

TLE from 7 hours ago
0 ARIANE 5 R/B
1 44477U 19049C   25186.48323720  .00005416  00000-0  68831-3 0  9995
2 44477   4.2852 107.8933 6754229  98.1045 337.2389  2.98623944 55385
Epoch: 2025-07-05T11:35Z
TLE epoch observation values (Epoch: 2025-07-05T11:35:51.694Z)
Latitude
0.00003°
Longitude
9.82536°
Altitude
5,944.352 km
Speed
6.717 km/s
True Right ascension
07h 10m 02s
True Declination
0° 00' 00"
Sunlit
Object was in daylight at epoch
Visualization orbit readout
Latitude
-3.26498°
Longitude
-39.78045°
Altitude
19,693.176 km
Speed
3.318 km/s
Apparent Right ascension
03h 21m 31s
Apparent Declination
-13° 59' 30"
Sunlit
Object is in daylight
Visualization observer readout
Local Sidereal Time
06:17:53
Azimuth
226.864° WSW
Elevation
22.294°
Doppler factor
1
Orbital elements
Apogee altitude
27,758.767 km
Perigee altitude
235.153 km
Semi-major axis
20,375.097 km
Eccentricity
0.67542
Inclination
4.2852°
RAAN
107.8933°
Arg. of periapsis
98.1045°
True anomaly
Unknown
Mean anomaly
337.2389°
Eccentric anomaly
Unknown
Mean motion
0.74627 °/min
Orbital period
482.4 mins
BSTAR
0.00068831
Loading maneuver chart data...
Loading SW <> Apogee altitude chart data...
Loading historical data...
Loading historical data...
Loading historical data...
Loading historical data...
Loading historical data...
Loading historical data...
Loading historical data...
Other satellites on launch #49 in the year 2019 (2019-08-06 UTC)

ARIANE 5 R/B Visibility forecast

Observer location: undefined°, undefined°

Span
Click to sort rows by Start time (UTC) header in descending order
Start Az.
Max El. time (UTC)
Max El. Az.
Max El.
End time (UTC)
End Az.
86 mins2025-07-05 18:22:22.428Z226.844° WSW2025-07-05 19:21:22.428Z209.654° SW21.636°2025-07-05 19:48:22.428Z162.529° S
311 mins2025-07-06 13:11:22.428Z234.9° WSW2025-07-06 15:10:22.428Z223.101° SW23.598°2025-07-06 18:22:22.428Z229.358° WSW
|